ETH917 HAAB-DBBB

Flight info

Callsign ETH917
Flight time N/A
Altitude 38000
Route BRO3A BRO DCT KAFIA DCT IRAGA UB736 TJR UA861 GATAG UT457 LAG UL433 POLTO POLTO1M
Aircraft B737/M-SDE2E3FGHIRWXY/LB1

Departure

Time 2026-05-06 00:10
Airport Addis Ababa Bole International Airport (HAAB)

Arrival

Time N/A
Airport Cotonou Cadjehoun International Airport (DBBB)
Time Latitude Longitude Altitude Speed Heading
2026-05-05 23:23 8.98193 38.79473 7664 ft 0 kts 342°
2026-05-05 23:59 8.98192 38.79473 7664 ft 1 kts 342°
2026-05-05 23:59 8.98169 38.79481 7664 ft 4 kts 342°
2026-05-05 23:59 8.98143 38.79489 7664 ft 4 kts 335°
2026-05-06 00:00 8.98122 38.79504 7664 ft 4 kts 298°
2026-05-06 00:00 8.98119 38.79519 7664 ft 0 kts 253°
2026-05-06 00:03 8.98118 38.79514 7664 ft 4 kts 253°
2026-05-06 00:03 8.98099 38.79450 7664 ft 14 kts 254°
2026-05-06 00:03 8.98069 38.79341 7664 ft 17 kts 255°
2026-05-06 00:03 8.98033 38.79217 7664 ft 20 kts 253°
2026-05-06 00:04 8.97992 38.79077 7664 ft 22 kts 253°
2026-05-06 00:04 8.97949 38.78926 7664 ft 23 kts 254°
2026-05-06 00:04 8.97909 38.78788 7664 ft 16 kts 251°
2026-05-06 00:04 8.97835 38.78742 7664 ft 15 kts 160°
2026-05-06 00:05 8.97755 38.78614 7664 ft 12 kts 255°
2026-05-06 00:05 8.97733 38.78533 7664 ft 12 kts 253°
2026-05-06 00:05 8.97721 38.78454 7664 ft 11 kts 271°
2026-05-06 00:06 8.97729 38.78377 7664 ft 11 kts 276°
2026-05-06 00:06 8.97733 38.78303 7664 ft 10 kts 268°
2026-05-06 00:06 8.97731 38.78256 7664 ft 10 kts 267°
2026-05-06 00:06 8.97728 38.78222 7664 ft 10 kts 261°
2026-05-06 00:07 8.97696 38.78168 7664 ft 10 kts 162°
2026-05-06 00:07 8.97631 38.78192 7664 ft 10 kts 162°
2026-05-06 00:07 8.97567 38.78213 7664 ft 9 kts 162°
2026-05-06 00:07 8.97506 38.78232 7664 ft 9 kts 166°
2026-05-06 00:08 8.97447 38.78247 7664 ft 9 kts 165°
2026-05-06 00:08 8.97390 38.78263 7664 ft 8 kts 165°
2026-05-06 00:08 8.97334 38.78286 7664 ft 10 kts 149°
2026-05-06 00:08 8.97277 38.78328 7664 ft 10 kts 141°
2026-05-06 00:09 8.97252 38.78389 7664 ft 10 kts 88°
2026-05-06 00:09 8.97289 38.78547 7664 ft 49 kts 72°
2026-05-06 00:09 8.97439 38.79076 7664 ft 107 kts 73°
2026-05-06 00:09 8.97748 38.80124 7664 ft 164 kts 74°
2026-05-06 00:10 8.98097 38.81333 7804 ft 193 kts 76°
2026-05-06 00:10 8.98400 38.82715 8256 ft 212 kts 80°
2026-05-06 00:10 8.98613 38.84278 8655 ft 234 kts 84°
2026-05-06 00:10 8.98732 38.86047 8678 ft 270 kts 88°
2026-05-06 00:11 8.98757 38.87977 9173 ft 267 kts 90°
2026-05-06 00:11 8.98724 38.89697 10821 ft 214 kts 92°
2026-05-06 00:11 8.98649 38.91042 12317 ft 173 kts 93°
2026-05-06 00:11 8.98571 38.92237 12788 ft 181 kts 91°
2026-05-06 00:12 8.98453 38.93787 11830 ft 259 kts 96°
2026-05-06 00:12 8.98221 38.95061 11510 ft 292 kts 102°
2026-05-06 00:12 8.97586 38.97037 12310 ft 288 kts 110°
2026-05-06 00:12 8.96729 38.98793 13531 ft 269 kts 118°
2026-05-06 00:13 8.95692 39.00341 14438 ft 266 kts 126°
2026-05-06 00:13 8.94447 39.01738 15080 ft 270 kts 134°
2026-05-06 00:13 8.92995 39.02962 15706 ft 274 kts 142°
2026-05-06 00:13 8.91372 39.03980 16338 ft 276 kts 150°
2026-05-06 00:14 8.89599 39.04775 16930 ft 282 kts 159°
2026-05-06 00:14 8.87625 39.05066 17331 ft 295 kts 182°
2026-05-06 00:14 8.85598 39.04547 17634 ft 311 kts 204°
2026-05-06 00:14 8.83794 39.03239 17849 ft 330 kts 225°
2026-05-06 00:15 8.82488 39.01276 18059 ft 348 kts 245°
2026-05-06 00:15 8.81836 38.98955 18279 ft 363 kts 261°
2026-05-06 00:15 8.81749 38.96354 18480 ft 378 kts 270°
2026-05-06 00:15 8.81681 38.93648 18658 ft 392 kts 267°
2026-05-06 00:16 8.81560 38.90843 18823 ft 406 kts 268°
2026-05-06 00:16 8.81449 38.87943 18973 ft 419 kts 268°
2026-05-06 00:16 8.81345 38.84959 19131 ft 430 kts 268°
2026-05-06 00:16 8.81242 38.81907 19283 ft 439 kts 268°
2026-05-06 00:17 8.81139 38.78799 19556 ft 444 kts 268°
2026-05-06 00:17 8.81039 38.75669 19905 ft 447 kts 268°
2026-05-06 00:17 8.80941 38.72644 20244 ft 449 kts 268°
2026-05-06 00:17 8.80806 38.69487 20582 ft 451 kts 266°
2026-05-06 00:18 8.80433 38.66336 20913 ft 453 kts 261°
2026-05-06 00:18 8.79769 38.63203 21224 ft 456 kts 256°
2026-05-06 00:18 8.78893 38.60123 21532 ft 458 kts 253°
2026-05-06 00:18 8.77947 38.57035 21821 ft 460 kts 253°
2026-05-06 00:19 8.77030 38.53974 22100 ft 462 kts 253°
2026-05-06 00:19 8.76108 38.50859 22375 ft 464 kts 253°
2026-05-06 00:19 8.75185 38.47726 22642 ft 466 kts 253°
2026-05-06 00:19 8.74260 38.44583 22870 ft 468 kts 253°
2026-05-06 00:20 8.73331 38.41424 23112 ft 470 kts 254°
2026-05-06 00:20 8.72401 38.38250 23324 ft 472 kts 254°
2026-05-06 00:20 8.71631 38.35017 23554 ft 473 kts 259°
2026-05-06 00:20 8.71093 38.31732 23782 ft 475 kts 262°
2026-05-06 00:21 8.70635 38.28424 24004 ft 476 kts 262°
2026-05-06 00:21 8.70149 38.25111 24213 ft 477 kts 262°
2026-05-06 00:21 8.69648 38.21792 24449 ft 478 kts 262°
2026-05-06 00:21 8.69143 38.18468 24651 ft 479 kts 262°
2026-05-06 00:22 8.69122 38.18330 24658 ft 479 kts 262°
2026-05-06 00:22 8.68676 38.15408 24844 ft 480 kts 262°
2026-05-06 00:22 8.68169 38.12085 25036 ft 481 kts 262°
2026-05-06 00:22 8.67663 38.08738 25217 ft 483 kts 262°
2026-05-06 00:23 8.67162 38.05424 25425 ft 483 kts 262°
2026-05-06 00:23 8.66653 38.02064 25596 ft 484 kts 262°
2026-05-06 00:23 8.66142 37.98696 25780 ft 485 kts 262°
2026-05-06 00:23 8.65631 37.95328 25992 ft 485 kts 262°
2026-05-06 00:24 8.65120 37.91963 26147 ft 486 kts 262°
2026-05-06 00:24 8.64607 37.88582 26301 ft 487 kts 262°
2026-05-06 00:24 8.64090 37.85192 26468 ft 488 kts 262°
2026-05-06 00:24 8.63576 37.81807 26629 ft 488 kts 261°
2026-05-06 00:25 8.63059 37.78411 26773 ft 489 kts 262°
2026-05-06 00:25 8.62535 37.74924 26916 ft 490 kts 262°
2026-05-06 00:25 8.62020 37.71504 27107 ft 490 kts 262°
2026-05-06 00:25 8.61509 37.68123 27359 ft 488 kts 261°
2026-05-06 00:26 8.60989 37.64687 27586 ft 487 kts 261°
2026-05-06 00:26 8.60475 37.61302 27813 ft 486 kts 261°
2026-05-06 00:26 8.59963 37.57931 28050 ft 485 kts 261°
2026-05-06 00:26 8.59444 37.54519 28285 ft 484 kts 261°
2026-05-06 00:27 8.58933 37.51160 28522 ft 483 kts 261°
2026-05-06 00:27 8.58427 37.47840 28802 ft 481 kts 261°
2026-05-06 00:27 8.57918 37.44497 29031 ft 481 kts 261°
2026-05-06 00:27 8.57408 37.41159 29291 ft 480 kts 261°
2026-05-06 00:28 8.56900 37.37836 29566 ft 478 kts 261°
2026-05-06 00:28 8.56393 37.34515 29800 ft 478 kts 261°
2026-05-06 00:28 8.55888 37.31205 30075 ft 477 kts 261°
2026-05-06 00:28 8.55387 37.27940 30336 ft 476 kts 261°
2026-05-06 00:29 8.54877 37.24599 30585 ft 475 kts 261°
2026-05-06 00:29 8.54379 37.21349 30875 ft 473 kts 261°
2026-05-06 00:29 8.53869 37.18025 31158 ft 472 kts 261°
2026-05-06 00:29 8.53374 37.14790 31404 ft 472 kts 261°
2026-05-06 00:30 8.52871 37.11514 31667 ft 471 kts 261°
2026-05-06 00:30 8.52370 37.08247 31977 ft 469 kts 261°
2026-05-06 00:30 8.51871 37.04997 32248 ft 469 kts 261°
2026-05-06 00:30 8.51372 37.01748 32544 ft 467 kts 261°
2026-05-06 00:31 8.50873 36.98508 32810 ft 466 kts 261°
2026-05-06 00:31 8.50377 36.95278 33092 ft 465 kts 261°
2026-05-06 00:31 8.49880 36.92053 33390 ft 464 kts 261°
2026-05-06 00:31 8.49385 36.88838 33640 ft 463 kts 261°
2026-05-06 00:32 8.48889 36.85627 33937 ft 462 kts 261°
2026-05-06 00:32 8.48410 36.82516 34203 ft 461 kts 261°
2026-05-06 00:32 8.47917 36.79321 34452 ft 460 kts 261°
2026-05-06 00:32 8.47425 36.76129 34711 ft 460 kts 261°
2026-05-06 00:33 8.46932 36.72942 34964 ft 459 kts 261°
2026-05-06 00:33 8.46441 36.69758 35208 ft 458 kts 261°
2026-05-06 00:33 8.45950 36.66581 35445 ft 458 kts 261°
2026-05-06 00:33 8.45459 36.63409 35708 ft 456 kts 261°
2026-05-06 00:34 8.44969 36.60246 35948 ft 455 kts 261°
2026-05-06 00:34 8.44480 36.57087 36155 ft 455 kts 261°
2026-05-06 00:34 8.43991 36.53931 36363 ft 455 kts 261°
2026-05-06 00:34 8.43502 36.50779 36571 ft 454 kts 261°
2026-05-06 00:35 8.43014 36.47632 36770 ft 454 kts 261°
2026-05-06 00:35 8.42525 36.44482 36962 ft 453 kts 261°
2026-05-06 00:35 8.42038 36.41342 37152 ft 453 kts 261°
2026-05-06 00:35 8.41550 36.38202 37337 ft 452 kts 261°
2026-05-06 00:36 8.41062 36.35065 37515 ft 452 kts 261°
2026-05-06 00:36 8.40575 36.31931 37651 ft 453 kts 261°
2026-05-06 00:36 8.40086 36.28789 37804 ft 453 kts 261°
2026-05-06 00:36 8.39604 36.25692 37987 ft 452 kts 261°
2026-05-06 00:37 8.39117 36.22561 38145 ft 451 kts 261°
2026-05-06 00:37 8.38696 36.19862 38225 ft 452 kts 261°
2026-05-06 00:38 8.37760 36.13862 38232 ft 452 kts 261°
2026-05-06 00:38 8.36782 36.07598 38231 ft 451 kts 261°
2026-05-06 00:39 8.35804 36.01340 38227 ft 451 kts 261°
2026-05-06 00:39 8.34825 35.95082 38222 ft 451 kts 261°
2026-05-06 00:40 8.33843 35.88814 38219 ft 452 kts 261°
2026-05-06 00:40 8.32860 35.82544 38213 ft 451 kts 261°
2026-05-06 00:41 8.31877 35.76280 38210 ft 451 kts 261°
2026-05-06 00:41 8.30894 35.70021 38205 ft 451 kts 261°
2026-05-06 00:42 8.29915 35.63794 38202 ft 451 kts 261°
2026-05-06 00:42 8.28946 35.57639 38184 ft 451 kts 261°
2026-05-06 00:43 8.27961 35.51391 38163 ft 451 kts 261°
2026-05-06 00:43 8.26974 35.45140 38152 ft 451 kts 261°
2026-05-06 00:44 8.25986 35.38887 38145 ft 451 kts 261°
2026-05-06 00:44 8.24999 35.32636 38139 ft 451 kts 261°
2026-05-06 00:45 8.24009 35.26385 38135 ft 451 kts 261°
2026-05-06 00:45 8.23019 35.20134 38129 ft 451 kts 261°
2026-05-06 00:46 8.22031 35.13894 38125 ft 450 kts 261°
2026-05-06 00:46 8.21039 35.07649 38120 ft 451 kts 260°
2026-05-06 00:47 8.20047 35.01408 38116 ft 451 kts 260°
2026-05-06 00:47 8.19057 34.95180 38111 ft 450 kts 260°
2026-05-06 00:48 8.18064 34.88941 38108 ft 450 kts 260°
2026-05-06 00:48 8.17076 34.82700 38104 ft 450 kts 260°
2026-05-06 00:49 8.16081 34.76464 38100 ft 451 kts 260°
2026-05-06 00:49 8.15081 34.70214 38096 ft 450 kts 260°
2026-05-06 00:50 8.14082 34.63980 38092 ft 450 kts 260°
2026-05-06 00:50 8.13158 34.57728 38089 ft 451 kts 264°
2026-05-06 00:51 8.13070 34.52466 38086 ft 452 kts 271°
2026-05-06 00:51 8.13483 34.46130 38083 ft 453 kts 273°
2026-05-06 00:52 8.13927 34.39792 38078 ft 453 kts 272°
2026-05-06 00:52 8.14361 34.33473 38078 ft 452 kts 272°
2026-05-06 00:53 8.14561 34.30532 38073 ft 452 kts 272°
2026-05-06 00:53 8.14992 34.24194 38073 ft 453 kts 272°
2026-05-06 00:54 8.15427 34.17856 38072 ft 453 kts 272°
2026-05-06 00:54 8.15863 34.11518 38069 ft 453 kts 272°
2026-05-06 00:55 8.16293 34.05180 38067 ft 453 kts 272°
2026-05-06 00:55 8.16722 33.98838 38062 ft 453 kts 272°
2026-05-06 00:56 8.17148 33.92491 38061 ft 453 kts 272°
2026-05-06 00:56 8.17573 33.86148 38062 ft 453 kts 272°
2026-05-06 00:57 8.17999 33.79803 38057 ft 453 kts 272°
2026-05-06 00:57 8.18422 33.73490 38058 ft 453 kts 272°
2026-05-06 00:58 8.18845 33.67154 38054 ft 452 kts 272°
2026-05-06 00:58 8.19266 33.60824 38053 ft 452 kts 272°
2026-05-06 00:59 8.19686 33.54496 38050 ft 452 kts 272°
2026-05-06 00:59 8.20103 33.48170 38049 ft 452 kts 272°
2026-05-06 01:00 8.20518 33.41890 38047 ft 451 kts 272°
2026-05-06 01:00 8.20933 33.35574 38045 ft 451 kts 272°
2026-05-06 01:01 8.21348 33.29267 38044 ft 450 kts 272°
2026-05-06 01:01 8.21761 33.22968 38042 ft 449 kts 272°
2026-05-06 01:02 8.22172 33.16672 38040 ft 449 kts 272°
2026-05-06 01:02 8.22581 33.10405 38039 ft 448 kts 272°
2026-05-06 01:03 8.22988 33.04127 38039 ft 448 kts 272°
2026-05-06 01:03 8.23395 32.97844 38038 ft 448 kts 272°
2026-05-06 01:04 8.23801 32.91576 38035 ft 447 kts 272°
2026-05-06 01:04 8.24207 32.85314 38034 ft 447 kts 272°
2026-05-06 01:05 8.24610 32.79062 38034 ft 446 kts 272°
2026-05-06 01:05 8.25012 32.72814 38032 ft 445 kts 272°
2026-05-06 01:06 8.25412 32.66579 38041 ft 445 kts 272°
2026-05-06 01:06 8.25811 32.60341 38056 ft 445 kts 272°
2026-05-06 01:07 8.26207 32.54113 38060 ft 444 kts 272°
2026-05-06 01:07 8.26603 32.47910 38061 ft 444 kts 272°
2026-05-06 01:08 8.26931 32.42736 38060 ft 444 kts 272°
2026-05-06 01:08 8.27224 32.38126 38057 ft 444 kts 272°
2026-05-06 01:09 8.27616 32.31915 38057 ft 443 kts 272°
2026-05-06 01:09 8.28009 32.25701 38076 ft 443 kts 272°
2026-05-06 01:10 8.28397 32.19520 38088 ft 443 kts 272°
2026-05-06 01:10 8.28788 32.13304 38090 ft 443 kts 272°
2026-05-06 01:11 8.29176 32.07101 38088 ft 442 kts 271°
2026-05-06 01:11 8.29563 32.00897 38086 ft 443 kts 271°
2026-05-06 01:12 8.29950 31.94693 38086 ft 443 kts 272°
2026-05-06 01:12 8.30329 31.88594 38088 ft 443 kts 272°
2026-05-06 01:13 8.30714 31.82384 38085 ft 443 kts 272°
2026-05-06 01:13 8.31099 31.76175 38083 ft 443 kts 272°
2026-05-06 01:14 8.31672 31.66871 38082 ft 443 kts 272°
2026-05-06 01:14 8.32053 31.60662 38082 ft 443 kts 272°
2026-05-06 01:15 8.32434 31.54444 38074 ft 444 kts 272°
2026-05-06 01:15 8.32815 31.48230 38073 ft 444 kts 272°
2026-05-06 01:16 8.33194 31.42010 38071 ft 443 kts 272°